カタログに戻る

BLOCK DM-SL R/B

運用中GTO
NORAD 39021·ROCKET BODY· XX

打ち上げ Dec 3, 2012 から Sea Launch Platform

Loading…

TLE

経年Source: Space-Track

元期: Sep 14, 2026, 05:52 UTC

1 39021U 12069B   26257.24506707 -.00000185  00000-0  00000-0 0  9991
2 39021   0.8134  15.5781 6869423 150.8510 231.1774  2.21902968111746

AllMySatでBLOCK DM-SL R/Bをリアルタイム追跡

Download on the App Store